sat.trackr.live / text

‹ back to catalog

STARLINK-32221

NORAD 60342 · 2024-136P

PAYLOAD ACTIVE UNKNOWN

§ Identity

Operator
Country
US
Launch date
2024-08-02
Launch site
AFETR
Launch vehicle
Mass (kg)
RCS (m²)

Purposes: comms

External: N2YO · Heavens-Above · Gunter

§ Orbital elements

Epoch: 2026-05-25T02:20:16.445184Z

Period
94.11 min
Inclination
53.1608°
Eccentricity
0.0001435
Mean motion
15.30194231 rev/d
Perigee alt
474.2 km
Apogee alt
476.2 km
Semi-major
6,853.4 km
B*
2.5107e-5
RAAN
80.7072°
Arg perigee
90.5243°
Mean anomaly
269.5922°
Rev number
10,136

§ Raw data

STARLINK-322211 60342U 24136P   26145.09741256  .00000384  00000+0  25107-4 0  99962 60342  53.1608  80.7072 0001435  90.5243 269.5922 15.30194231101365

JSON: /api/v1/satellites/60342 · /tle

For live sub-satellite position, see the globe view (requires WebGL).

§ Visibility from observer

Set your observer location to see the next 7 days of passes ≥ 10°. The values pass through the URL so the page stays shareable.

No JS? Fill the form by hand. The geolocation button needs JavaScript.